CAPE
2093 1962 1892 1917 2052 2184 2186 2171 2140 2012 1898 1812 1630 1308 1076 840 1673 2156 2170 2081 1995 1955 1886 1815 1654 1397 1328 1304 1285 1031 962 1176 400 406 0 0 0 0 0 0 0 0 0 0 0 0 0 0 0 0 0 0 0 0 0 0 0 0 0 0 1 12 24 33 24 37 2 16 118 333 421 470 586 677 724 706 864 1014 1114 1344 1283 1168 1136 1035 897
2148 2219 2095 1961 1971 2070 1942 1882 1949 2033 1987 1832 1509 1129 859 1248 2099 1968 2104 2026 1830 1639 1514 1417 1464 1435 1285 976 897 1071 1328 509 389 369 0 0 0 0 0 0 0 0 0 0 0 0 0 0 0 0 0 0 0 0 0 0 0 0 0 0 1 27 35 48 69 61 25 10 56 362 470 500 596 650 746 633 822 957 956 1019 1040 1036 974 927 864
2088 2184 2226 2100 2013 2086 2070 1789 1655 1770 1803 1772 1512 1065 1429 2199 2010 1813 1637 1676 1612 1553 1518 1445 1223 990 842 876 999 1167 848 317 381 334 0 0 0 0 0 0 0 0 0 0 0 0 0 0 0 0 0 0 0 0 0 0 0 0 1 6 13 52 96 86 89 80 68 65 55 164 408 495 540 610 775 597 651 772 803 812 820 851 829 774 728
2114 2060 2128 2124 2058 1996 2037 1882 1606 1510 1533 1523 1390 1308 2278 2048 1917 1650 1621 1646 1599 1428 1262 1169 1029 829 704 780 1100 1121 470 298 380 301 0 0 0 0 0 0 0 0 0 0 0 0 0 0 0 0 0 0 0 0 0 0 0 0 4 14 19 61 115 105 98 204 70 54 100 317 363 432 420 452 671 574 683 705 665 671 702 730 699 631 574
1990 2020 1902 1882 1893 1846 1877 1789 1533 1372 1328 1250 1558 2190 2182 1965 1846 1688 1660 1603 1488 1393 1269 975 706 602 773 1058 1236 822 103 202 374 277 0 0 0 0 0 0 0 0 0 0 0 0 0 0 0 0 0 0 0 0 0 0 0 0 6 15 32 53 76 90 86 122 54 78 172 319 350 356 281 332 326 485 666 663 688 663 659 641 626 585 592
1518 1693 1705 1674 1602 1525 1529 1615 1418 1145 1450 2362 2300 2162 2080 2024 1902 1791 1709 1626 1463 1247 931 639 486 740 996 1028 1131 517 0 186 378 165 0 0 0 0 0 0 0 0 0 0 0 0 0 0 0 0 0 0 0 0 0 0 0 0 6 12 17 27 73 134 52 56 50 208 245 171 167 189 193 260 274 468 582 572 567 596 606 634 630 573 443
1359 1457 1617 1653 1665 1437 1239 1178 1286 1284 2841 2487 2159 2065 2038 2014 1917 1814 1719 1497 1231 934 789 769 613 657 936 1133 903 158 0 168 373 167 0 0 0 0 0 0 0 0 0 0 0 0 0 0 0 0 0 0 0 0 0 0 0 0 10 5 3 3 5 3 4 6 21 44 112 160 186 275 281 367 347 461 576 549 497 484 483 521 470 351 417
1340 1366 1457 1618 1979 2123 1845 1027 747 2417 2654 2284 2105 2008 1994 1986 1880 1745 1638 1424 1233 1169 1126 931 434 638 929 1174 655 0 0 304 354 178 0 0 0 0 0 0 0 0 0 0 0 0 0 0 0 0 0 18 75 20 1 0 0 0 0 2 0 0 0 0 0 0 0 2 117 165 215 180 360 390 434 456 421 479 579 588 526 449 396 202 170
1301 1250 1247 1604 2113 2341 2410 2779 2907 2953 2461 2217 2098 2056 2004 1991 1930 1844 1664 1440 1362 1274 1144 906 86 697 983 1092 437 0 115 313 317 171 0 0 0 0 0 0 0 0 0 0 0 0 0 0 0 0 0 139 186 196 174 180 4 0 0 0 9 0 0 0 0 0 0 0 0 158 239 324 411 484 447 490 494 477 560 549 543 485 125 10 7
1326 1220 1062 1718 2342 2787 3725 3619 3060 2589 2300 2174 2101 2075 2041 2015 1943 1797 1637 1522 1422 1311 1116 700 632 965 1238 1001 461 0 212 287 312 204 192 11 0 0 0 0 0 0 0 0 0 0 0 0 0 0 0 36 147 214 201 231 297 199 14 0 0 0 0 0 0 0 0 132 74 168 264 354 450 500 531 518 515 486 496 476 407 227 34 5 8
1324 1197 1074 1900 2545 3610 3974 3373 2861 2458 2249 2159 2161 2102 2029 1947 1826 1696 1560 1479 1389 1262 982 94 613 1049 1300 909 422 240 236 289 309 221 87 114 30 0 0 0 0 0 0 0 0 0 0 0 0 0 0 0 19 204 232 146 232 302 297 294 325 23 0 0 0 0 0 0 218 248 265 335 428 462 477 512 553 533 507 508 482 301 83 1 4
1287 1157 1214 2344 3033 4019 3961 3352 2844 2503 2360 2258 2189 2100 1958 1804 1662 1556 1511 1433 1343 1179 756 0 811 1194 1306 716 468 219 48 301 307 256 146 39 1 0 0 0 0 0 0 0 0 0 0 0 0 0 0 3 0 0 48 398 156 189 186 176 243 280 96 43 0 0 0 0 108 250 312 363 424 474 458 458 489 522 426 269 186 79 0 0 0
1457 1467 2110 2978 3331 4168 3948 3344 2885 2675 2609 2480 2313 2139 1896 1718 1627 1569 1528 1432 1304 1003 0 0 946 1279 1158 733 444 0 46 297 297 283 211 36 0 0 0 0 0 0 0 0 0 0 0 0 0 0 0 0 0 0 0 8 458 191 113 183 190 202 175 125 58 36 0 0 0 249 315 338 359 445 460 412 412 176 135 149 136 31 41 99 102
2016 2149 2826 3330 3590 4258 3940 3337 2984 2817 2709 2541 2368 2168 1950 1767 1650 1573 1482 1364 1169 596 0 448 938 1210 1191 587 396 281 275 262 290 289 243 60 0 0 0 0 0 0 0 0 0 0 0 0 0 0 0 0 0 0 0 0 0 0 0 0 0 49 88 142 112 77 55 0 0 78 294 371 403 444 462 428 371 168 172 228 156 127 132 122 112
2700 2789 3130 3584 3818 4294 3939 3407 3087 2929 2750 2595 2387 2198 1971 1836 1709 1608 1508 1337 972 0 0 456 982 1281 1014 593 368 272 248 255 270 300 280 96 0 0 0 0 0 0 0 0 0 0 0 0 0 0 0 2 101 18 0 0 2 0 0 0 0 0 0 0 0 1 8 0 0 4 310 342 371 415 415 403 412 393 124 163 174 200 267 367 322
3151 3207 3368 3750 3944 4314 3948 3510 3205 3043 2849 2698 2474 2257 2051 1913 1736 1603 1466 1222 793 0 0 548 976 1290 957 507 387 290 253 254 281 279 284 176 0 0 0 0 0 0 0 0 0 0 0 0 0 0 0 0 42 61 40 7 0 0 0 0 0 0 57 342 42 125 92 0 0 67 301 346 372 480 506 503 582 716 690 313 121 68 66 52 80
3489 3477 3599 3812 3970 4340 3971 3526 3242 3011 2861 2711 2582 2363 2176 1993 1834 1564 1354 1048 449 0 116 551 948 1148 1006 552 393 314 263 266 253 251 281 185 10 0 0 0 0 0 0 0 0 0 0 0 0 0 0 0 3 1 7 1 0 0 0 0 0 0 0 152 247 70 24 0 0 0 227 371 386 423 534 575 561 437 443 397 200 125 162 149 153
3714 3666 3674 3805 4135 4390 3995 3528 3227 3056 2894 2769 2620 2494 2248 1998 1785 1519 1226 800 326 0 63 591 783 1024 869 627 362 333 286 264 232 265 246 166 0 0 0 0 0 0 0 0 0 0 0 0 0 0 0 0 0 0 0 1 0 0 0 0 0 0 0 0 0 6 6 1 0 0 263 366 397 403 476 506 488 449 414 387 331 302 264 274 317
3854 3793 3783 3833 4344 4446 4079 3624 3311 3138 2969 2857 2736 2544 2314 2055 1732 1400 1119 754 284 0 401 623 807 947 820 557 379 323 177 0 0 0 0 0 0 0 0 0 0 0 0 0 0 0 0 0 0 0 0 0 0 0 0 0 0 0 0 0 0 0 0 0 0 0 0 0 0 0 47 318 381 436 480 518 517 502 466 436 410 407 388 383 360
3975 3890 3920 3884 4469 4477 4158 3788 3464 3210 3031 2987 2797 2607 2306 2044 1703 1315 967 603 248 66 426 602 868 1012 771 549 36 0 0 0 0 0 0 0 0 0 0 0 0 0 0 0 0 0 0 0 0 0 0 0 0 0 0 0 0 0 0 0 0 0 0 4 30 0 0 0 0 0 0 254 314 394 426 441 452 493 487 478 476 462 445 410 363
4062 3987 4018 3946 4516 4509 4218 3934 3628 3359 3167 3012 2847 2645 2416 2009 1547 1104 764 485 395 393 466 616 853 929 710 436 55 0 0 0 210 22 149 0 0 0 0 0 0 0 0 0 0 0 0 0 0 0 0 0 0 0 0 0 0 0 0 0 0 0 0 0 0 0 0 0 0 0 0 0 138 295 342 358 432 477 505 502 493 465 464 478 501
4158 4006 4049 4012 4541 4527 4280 4096 3796 3528 3308 3083 2831 2628 2300 1851 1305 893 592 444 407 427 497 649 837 856 660 495 403 0 0 0 0 0 159 0 0 0 0 0 0 0 0 0 0 0 0 0 0 0 0 0 0 0 0 0 0 0 0 0 0 0 0 0 0 0 0 0 0 0 0 0 0 0 0 0 307 361 417 456 480 487 485 491 488
4187 4090 4088 4153 4556 4526 4343 4129 3892 3644 3359 3098 2807 2474 2118 1677 1218 781 521 433 396 432 514 628 816 901 738 443 95 0 189 0 0 62 0 0 0 0 0 0 0 0 0 0 0 0 0 0 0 0 0 0 0 0 0 0 0 0 0 0 1 13 4 0 0 0 0 0 0 0 0 0 0 0 0 0 0 0 0 0 0 125 170 416 487
4214 4108 4171 4353 4533 4508 4354 4179 3921 3667 3444 3128 2904 2585 2113 1594 1133 732 521 422 398 423 478 604 840 956 676 390 324 320 274 49 35 0 0 0 0 0 0 0 0 0 0 0 0 0 0 0 0 0 0 0 0 0 0 0 0 0 0 0 10 51 0 0 0 0 0 0 0 0 0 0 0 0 0 0 0 0 0 0 0 0 0 0 0
4144 4130 4304 4480 4510 4456 4335 4168 3950 3705 3499 3310 2990 2680 2254 1708 1131 760 542 446 360 343 458 636 838 878 612 473 409 373 317 0 0 0 0 0 0 0 0 0 0 0 0 0 0 0 0 0 0 0 0 0 0 0 0 0 0 0 0 4 2 0 0 0 0 0 0 0 0 0 0 0 0 0 0 0 15 0 0 0 0 0 0 0 0
4100 4235 4428 4537 4503 4381 4267 4098 3943 3774 3602 3382 3160 2724 2295 1770 1284 790 551 427 418 408 477 621 937 758 584 380 412 369 163 116 101 0 0 0 0 0 0 0 0 0 0 0 0 0 0 0 0 0 0 0 0 0 0 9 56 4 2 0 0 0 0 0 0 0 0 0 0 0 0 0 0 0 0 0 0 0 0 0 0 0 0 0 0
4147 4369 4508 4506 4455 4331 4192 4015 3930 3818 3689 3508 3264 3000 2461 1828 1295 876 588 448 470 426 385 660 791 616 481 418 56 0 0 0 0 0 0 0 0 0 0 0 0 0 0 0 0 0 0 0 0 0 0 0 0 0 35 178 38 0 0 0 0 0 0 0 0 0 0 0 0 0 0 0 0 0 0 0 0 0 0 0 0 0 0 0 0
4209 4310 4479 4479 4404 4326 4198 4021 3863 3817 3754 3641 3301 2943 2565 2112 1538 1038 666 504 471 454 431 764 798 422 385 342 298 103 0 245 41 0 0 0 0 0 0 0 0 0 0 0 0 0 0 0 0 0 0 0 0 0 0 0 0 0 0 0 0 0 4 158 0 0 0 0 0 0 0 0 0 0 0 0 0 0 0 0 0 0 0 0 0
3888 4315 4483 4470 4413 4339 4212 4038 3913 3817 3657 3485 3341 2993 2492 2018 1666 1273 846 594 583 516 509 773 624 455 358 350 359 343 299 0 0 0 0 0 0 0 0 0 0 0 0 0 0 0 0 0 0 0 0 0 0 0 0 0 0 0 0 0 0 0 0 0 0 0 0 0 0 0 0 0 0 0 0 0 0 0 0 0 0 0 0 0 0
4261 4329 4491 4461 4368 4280 4179 4057 3908 3766 3619 3430 3138 2808 2525 2066 1710 1321 1013 638 592 542 468 758 740 472 420 397 365 303 260 0 0 0 0 0 0 0 0 0 0 0 0 0 0 0 0 0 0 0 0 0 0 0 0 0 0 0 0 0 0 0 0 0 0 0 0 0 0 0 0 0 0 0 0 0 0 0 0 0 0 0 0 0 0
4483 4403 4357 4352 4284 4204 4092 3986 3824 3736 3572 3420 3118 2771 2330 1897 1733 1438 1067 656 561 513 494 592 807 842 723 388 360 283 76 0 0 0 0 0 0 0 0 0 0 0 0 0 0 0 0 0 0 0 0 0 0 0 0 0 0 0 0 0 0 0 0 0 0 0 0 0 0 0 0 0 0 0 0 0 0 0 0 0 0 0 0 0 0
4457 4475 4439 4287 4253 4140 3977 3876 3723 3625 3536 3352 3134 2782 2386 1948 1424 1171 992 784 560 530 499 664 864 960 873 395 350 286 0 0 0 0 0 0 0 0 0 0 0 0 0 0 0 0 0 0 0 0 0 0 0 0 0 0 0 0 0 0 0 0 0 0 0 0 0 0 0 0 0 0 0 0 0 0 0 0 0 0 0 0 0 0 0
4462 4329 4274 4354 4136 3845 3794 3695 3618 3504 3356 3129 2844 2670 2385 1900 1580 1210 909 732 590 560 493 663 830 1097 672 456 382 303 0 0 0 0 0 0 0 0 0 0 0 0 0 0 0 0 0 0 0 0 0 0 0 0 0 0 0 0 0 0 0 0 0 0 0 0 0 0 0 0 0 0 0 0 0 0 0 0 0 0 0 0 0 0 0
4594 4486 4410 4292 3617 3206 3280 3361 3299 3368 3147 2948 2637 2378 2053 1800 1476 1182 984 649 472 391 508 638 800 1027 707 522 404 80 0 0 0 0 0 0 0 0 0 0 0 0 0 0 0 0 0 0 0 0 0 0 0 0 0 0 0 0 0 0 0 0 0 0 0 0 0 0 0 0 0 0 0 0 0 0 0 0 0 0 0 0 0 0 0
4769 4557 4486 4456 4241 3837 3553 3324 3167 3271 3193 2836 2515 2240 1885 1593 1317 1088 855 631 389 309 509 554 814 914 824 582 239 0 0 0 0 0 0 0 0 0 0 0 0 0 0 0 0 0 0 0 0 0 0 0 0 0 0 0 0 0 0 0 0 0 0 0 0 0 0 0 0 0 0 0 0 0 0 0 0 0 0 0 0 0 0 0 0
3780 3966 4151 4120 3963 3880 3796 3788 3646 3443 3171 2780 2320 2008 1793 1544 1209 780 698 678 552 488 420 640 745 754 435 0 0 0 0 0 0 0 0 0 0 0 0 0 0 0 0 0 0 0 0 0 0 0 0 0 0 0 0 0 0 0 0 0 0 0 0 0 0 0 0 0 0 0 0 0 0 0 0 0 0 0 0 0 0 0 0 0 0
3108 3168 3277 3364 3445 3492 3552 3456 3256 3007 2752 2474 2168 1862 1666 1467 1169 788 666 540 540 583 535 771 731 360 208 0 0 0 0 0 0 0 0 0 0 0 0 0 0 0 0 0 0 0 0 0 0 0 0 0 0 0 0 0 0 0 0 0 0 0 0 0 0 0 0 0 0 0 0 0 0 0 0 0 0 0 0 0 0 0 0 0 0
2543 2636 2824 2961 3026 3011 2948 2849 2733 2612 2499 2336 2064 1804 1629 1352 1083 768 687 625 556 472 665 822 722 552 254 0 0 0 0 0 0 0 0 0 0 0 0 0 0 0 0 0 0 0 0 0 0 0 0 0 0 0 0 0 0 0 0 0 0 0 0 0 11 0 0 0 0 0 0 0 0 0 0 0 0 0 0 0 0 0 0 0 0
2144 2173 2251 2390 2458 2419 2347 2279 2231 2233 2219 2103 1975 1733 1405 1164 953 726 616 578 476 651 951 760 589 359 0 0 0 0 0 0 0 0 0 0 0 0 0 0 0 0 0 0 0 0 0 0 0 0 0 0 0 0 0 0 0 0 0 0 0 0 0 0 0 0 0 0 0 0 0 0 0 0 0 0 0 0 0 0 0 0 0 0 0
2034 1970 1955 1990 2030 2012 1898 1779 1663 1519 1519 1630 1718 1583 1236 1019 859 660 614 543 698 1028 978 480 142 0 0 0 0 0 0 0 0 0 0 0 0 0 0 0 0 0 0 0 0 0 0 0 0 0 0 0 0 0 0 0 0 0 0 0 0 0 0 0 0 0 0 0 0 0 0 0 0 0 0 0 0 0 0 0 0 0 0 0 0
1750 1784 1805 1772 1747 1752 1704 1609 1503 1450 1405 1384 1417 1356 1135 925 813 686 652 833 1157 1175 922 540 0 0 0 0 0 0 0 0 0 0 0 0 0 0 0 0 0 0 0 0 0 0 0 0 0 0 0 0 0 0 0 0 0 0 0 0 0 0 0 0 0 0 0 0 0 0 0 0 0 0 0 0 0 0 0 0 0 0 0 0 0
1513 1550 1542 1493 1420 1467 1566 1528 1276 1073 998 959 971 967 893 786 796 740 960 1263 1316 1176 1036 528 0 0 0 0 0 0 0 0 0 0 0 0 0 0 0 0 0 0 0 0 0 0 0 0 0 0 0 0 0 0 0 0 0 0 0 0 0 0 0 0 0 0 0 0 0 0 0 0 0 0 0 0 0 0 0 0 0 0 0 0 0
1452 1425 1396 1358 1418 1738 1829 1647 1303 1078 1007 984 957 933 927 908 923 1098 1369 1415 1410 1356 1054 323 0 0 0 0 0 0 0 0 0 0 0 0 0 0 0 0 0 0 0 0 0 0 0 0 0 0 0 0 0 0 0 0 0 0 0 0 0 0 0 0 0 0 0 0 0 0 0 0 0 0 0 0 0 0 0 0 0 0 0 0 0
1508 1476 1453 1447 1439 1676 1833 1706 1350 1167 1170 1127 1124 1128 1099 1079 1220 1478 1495 1503 1448 1150 707 105 0 0 0 0 0 0 0 0 0 0 0 0 0 0 0 0 0 0 0 0 0 0 0 0 0 0 0 0 0 0 0 0 0 0 0 0 0 0 0 0 0 0 0 0 0 0 0 0 0 0 0 0 0 0 0 0 0 0 0 0 0
1444 1404 1355 1282 1368 1851 1975 1788 1502 1339 1328 1346 1393 1386 1366 1443 1545 1595 1593 1432 1144 807 44 0 0 0 0 0 0 0 0 0 0 0 0 0 0 0 0 0 0 0 0 0 0 0 0 0 0 0 0 0 0 0 0 0 0 0 0 0 0 0 0 0 0 0 0 0 0 0 0 0 0 0 0 0 0 0 0 0 0 0 0 0 0
1306 1294 1288 1325 1378 1656 2118 2014 1730 1542 1481 1526 1560 1609 1642 1694 1712 1705 1524 1240 1053 751 0 0 0 0 0 0 0 0 0 0 0 0 0 0 0 0 0 0 0 0 0 0 0 0 0 0 0 0 0 0 0 0 0 0 0 0 0 0 0 0 0 0 0 0 0 0 0 0 0 0 0 0 0 0 0 0 0 0 0 0 0 0 0
1388 1395 1375 1349 1464 1656 1892 2138 2035 1786 1610 1632 1639 1668 1704 1706 1661 1558 1371 1225 1126 374 0 0 0 0 0 0 0 0 0 0 0 0 0 0 0 0 0 0 0 0 0 0 0 0 0 0 0 0 0 0 0 0 0 0 0 0 0 0 0 0 0 0 0 0 0 0 0 0 0 0 0 0 36 0 0 0 0 0 0 0 0 0 0
1508 1454 1388 1340 1488 1668 1849 1874 1929 1888 1784 1668 1661 1707 1761 1690 1520 1476 1384 1146 730 128 0 0 0 0 0 0 0 0 0 0 0 0 0 0 0 0 0 0 0 0 0 0 0 0 0 0 0 0 0 0 0 0 0 0 0 0 0 0 0 0 0 0 0 0 0 0 0 0 0 0 0 0 0 0 0 0 0 0 0 0 0 0 0
1630 1591 1526 1479 1474 1451 1690 1985 2025 1901 1770 1654 1618 1770 1769 1640 1540 1502 1349 850 40 0 0 0 0 0 0 0 0 0 0 0 0 0 0 0 0 0 0 0 0 0 0 0 0 0 0 0 0 0 0 0 0 0 0 0 0 0 0 0 0 0 0 0 0 0 0 0 0 0 0 0 0 0 0 0 0 0 0 0 0 0 0 0 0
1764 1736 1780 1763 1703 1588 1474 1664 1990 2053 1902 1769 1800 1819 1809 1697 1592 1362 850 238 0 0 0 0 0 0 0 0 0 0 0 0 0 0 0 0 0 0 0 0 0 0 0 0 0 0 0 0 0 0 0 0 0 0 0 0 0 0 0 0 0 0 0 0 0 0 0 0 0 0 0 0 0 0 0 0 0 0 0 0 0 0 0 0 0
1673 1701 1668 1671 1716 1680 1501 1379 1532 1901 2027 1883 1730 1755 1790 1801 1666 1384 917 241 0 0 0 0 0 0 0 0 0 0 0 0 0 0 0 0 0 0 0 0 0 0 0 0 0 0 0 0 0 0 0 0 0 0 0 0 0 0 0 0 0 0 0 0 0 0 0 0 0 0 0 0 0 0 0 0 0 0 0 0 0 0 0 0 0
Wind_Speed
12 12 12 11 11 9 8 9 8 8 9 10 10 11 13 12 9 7 7 8 7 8 9 10 11 12 13 14 15 16 18 20 21 24 nan nan nan nan nan nan nan nan nan nan nan nan nan nan nan nan nan nan nan nan nan nan nan nan nan nan nan nan nan nan nan nan nan nan 16 14 11 9 8 10 13 16 20 23 25 26 26 25 24 23 24
13 14 13 12 12 10 9 9 8 8 7 8 8 8 10 11 9 8 10 8 7 8 10 10 11 13 14 15 16 17 20 21 22 24 nan nan nan nan nan nan nan nan nan nan nan nan nan nan nan nan nan nan nan nan nan nan nan nan nan nan nan nan nan nan nan nan nan nan nan 13 11 9 8 6 9 12 15 18 23 23 23 24 24 24 25
14 14 14 13 12 13 10 10 9 8 7 7 7 7 11 13 10 11 11 9 8 9 10 12 12 14 15 15 17 19 20 22 23 25 nan nan nan nan nan nan nan nan nan nan nan nan nan nan nan nan nan nan nan nan nan nan nan nan nan nan nan nan nan nan nan nan nan nan nan 13 10 9 7 2 3 6 9 13 18 19 21 22 24 25 26
16 14 14 12 12 13 12 10 9 10 9 7 8 11 14 15 12 13 11 9 11 10 11 13 13 15 16 16 18 20 21 22 24 25 nan nan nan nan nan nan nan nan nan nan nan nan nan nan nan nan nan nan nan nan nan nan nan nan nan nan nan nan 23 22 nan 21 nan nan 13 12 12 10 7 3 1 4 9 12 12 14 16 19 20 22 24
17 15 14 12 12 12 13 13 11 10 8 10 12 14 17 15 12 13 13 12 12 12 12 13 15 15 17 18 20 21 22 23 24 25 nan nan nan nan nan nan nan nan nan nan nan nan nan nan nan nan nan nan nan nan nan nan nan nan nan nan nan nan nan nan nan 20 nan nan 12 12 11 10 9 5 2 3 6 11 11 13 14 15 15 17 17
16 17 15 13 14 14 13 13 12 11 14 15 14 16 17 15 14 14 14 15 14 13 15 14 15 17 17 19 21 22 nan 23 25 26 nan nan nan nan nan nan nan nan nan nan nan nan nan nan nan nan nan nan nan nan nan nan nan nan nan nan nan nan nan 21 nan nan nan 15 12 10 8 8 8 6 4 3 4 8 10 11 12 12 14 14 14
17 16 15 15 17 15 14 12 11 15 16 16 17 17 18 16 16 15 14 16 16 17 17 17 16 18 19 19 21 22 nan 23 24 25 nan nan nan nan nan nan nan nan nan nan nan nan nan nan nan nan nan nan nan nan nan nan nan nan nan nan nan nan nan nan nan nan nan nan 13 10 9 8 8 5 6 6 5 5 6 8 11 9 10 11 11
17 16 16 17 18 16 13 11 12 15 16 17 18 18 17 16 16 16 16 17 18 18 19 19 18 19 19 21 21 nan nan 23 24 25 nan nan nan nan nan nan nan nan nan nan nan nan nan nan nan nan nan nan nan nan nan nan nan nan nan nan nan nan nan nan nan nan nan nan 13 10 9 8 5 7 7 6 4 3 3 5 7 8 10 9 9
17 17 18 18 19 20 19 18 17 17 17 17 17 18 17 16 16 16 17 17 17 19 19 21 nan 21 21 22 23 nan 24 25 25 26 nan nan nan nan nan nan nan nan nan nan nan nan nan nan nan nan nan 21 19 19 23 24 nan nan nan nan nan nan nan nan nan nan nan nan nan 13 10 7 6 6 4 3 2 3 2 3 5 5 5 nan nan
17 18 19 20 22 23 20 19 19 19 18 17 17 17 16 16 16 16 16 17 18 19 21 21 21 21 23 23 23 nan 24 23 27 30 29 nan nan nan nan nan nan nan nan nan nan nan nan nan nan nan nan nan 18 17 19 22 24 26 nan nan nan nan nan nan nan nan nan 18 nan 16 11 8 7 5 4 3 4 4 2 3 5 4 nan nan nan
17 18 19 22 24 24 20 19 20 20 19 18 17 17 17 16 17 17 16 17 19 20 21 nan 21 21 22 24 24 24 24 25 29 26 nan 32 nan nan nan nan nan nan nan nan nan nan nan nan nan nan nan nan nan 17 17 21 21 21 21 21 23 nan nan nan nan nan nan nan 19 16 15 13 11 9 6 5 4 4 4 4 2 2 nan nan nan
17 19 23 23 24 23 20 19 21 21 20 18 17 17 18 18 17 17 17 18 18 20 21 nan 21 21 22 23 24 24 nan 28 28 28 29 nan nan nan nan nan nan nan nan nan nan nan nan nan nan nan nan nan nan nan nan 15 21 21 21 21 20 19 nan nan nan nan nan nan 16 16 17 16 15 11 9 6 4 3 3 2 2 nan nan nan nan
18 21 24 23 22 22 21 20 21 21 20 19 18 18 18 19 18 17 17 17 19 21 nan nan 22 22 23 24 24 nan nan 28 29 30 35 nan nan nan nan nan nan nan nan nan nan nan nan nan nan nan nan nan nan nan nan nan 15 18 18 18 20 21 21 20 nan nan nan nan nan 16 17 19 15 13 11 10 8 5 3 2 3 nan nan nan 4
19 22 25 23 22 22 21 21 21 21 20 19 18 18 18 17 17 17 18 18 20 21 nan 22 22 22 22 23 24 24 24 28 29 34 39 nan nan nan nan nan nan nan nan nan nan nan nan nan nan nan nan nan nan nan nan nan nan nan nan nan nan nan nan 20 18 nan nan nan nan nan 18 20 19 19 16 13 9 7 7 7 8 8 7 7 10
20 23 24 24 23 22 21 21 21 21 20 19 18 17 18 19 18 18 18 18 20 nan nan 23 22 23 22 22 23 24 24 28 31 36 41 nan nan nan nan nan nan nan nan nan nan nan nan nan nan nan nan nan 16 nan nan nan nan nan nan nan nan nan nan nan nan nan nan nan nan nan 18 21 22 22 20 18 16 17 17 16 16 15 15 17 16
18 21 23 23 22 21 21 21 22 22 21 20 19 18 18 19 20 19 19 19 19 nan nan 22 24 24 22 22 24 24 24 28 32 36 41 42 nan nan nan nan nan nan nan nan nan nan nan nan nan nan nan nan nan nan nan nan nan nan nan nan nan nan nan 23 nan 20 nan nan nan nan 18 19 19 21 22 23 23 24 23 21 21 nan nan nan nan
17 19 21 21 21 21 22 22 22 22 22 21 20 19 20 21 21 20 20 20 21 nan 22 23 23 24 24 23 25 25 25 27 32 36 40 42 nan nan nan nan nan nan nan nan nan nan nan nan nan nan nan nan nan nan nan nan nan nan nan nan nan nan nan 20 19 nan nan nan nan nan 9 12 14 14 14 17 22 25 23 21 22 22 19 18 18
17 18 20 21 22 22 22 22 23 23 23 22 21 20 21 23 23 21 21 21 21 nan nan 24 24 24 24 25 26 27 26 28 32 35 38 39 nan nan nan nan nan nan nan nan nan nan nan nan nan nan nan nan nan nan nan nan nan nan nan nan nan nan nan nan nan nan nan nan nan nan 8 10 12 11 11 13 15 20 21 21 24 21 18 19 18
18 19 21 23 23 23 22 22 23 24 23 22 23 22 22 23 23 22 22 22 21 nan 22 24 24 23 23 25 29 29 27 nan nan nan nan nan nan nan nan nan nan nan nan nan nan nan nan nan nan nan nan nan nan nan nan nan nan nan nan nan nan nan nan nan nan nan nan nan nan nan nan 10 11 12 12 8 9 13 17 20 21 19 20 19 19
21 23 24 24 24 23 22 22 23 24 23 24 25 25 24 24 23 23 22 21 21 nan 22 24 25 24 24 25 nan nan nan nan nan nan nan nan nan nan nan nan nan nan nan nan nan nan nan nan nan nan nan nan nan nan nan nan nan nan nan nan nan nan nan nan nan nan nan nan nan nan nan 8 8 8 8 8 8 11 12 15 17 19 19 19 17
27 27 26 25 24 22 22 22 24 24 25 27 28 26 23 24 25 24 23 20 20 21 23 24 25 24 25 26 nan nan nan nan 31 nan 35 nan nan nan nan nan nan nan nan nan nan nan nan nan nan nan nan nan nan nan nan nan nan nan nan nan nan nan nan nan nan nan nan nan nan nan nan nan 6 5 4 4 5 7 9 10 12 15 17 18 18
30 30 28 26 24 23 22 23 25 27 29 31 29 25 22 25 25 24 21 20 21 22 23 24 25 25 26 28 29 nan nan nan nan nan 34 nan nan nan nan nan nan nan nan nan nan nan nan nan nan nan nan nan nan nan nan nan nan nan nan nan nan nan nan nan nan nan nan nan nan nan nan nan nan nan nan nan 2 4 6 8 10 11 13 16 17
30 29 28 26 25 23 23 23 26 28 29 30 29 25 23 25 25 23 22 21 22 23 24 25 27 27 28 29 nan nan 34 nan nan nan nan nan nan nan nan nan nan nan nan nan nan nan nan nan nan nan nan nan nan nan nan nan nan nan nan nan nan nan nan nan nan nan nan nan nan nan nan nan nan nan nan nan nan nan nan nan nan 10 11 12 13
30 28 26 25 25 24 23 24 26 29 31 31 27 25 24 26 24 22 22 22 22 24 24 26 28 29 31 32 32 33 33 nan nan nan nan nan nan nan nan nan nan nan nan nan nan nan nan nan nan nan nan nan nan nan nan nan nan nan nan nan nan nan nan nan nan nan nan nan nan nan nan nan nan nan nan nan nan nan nan nan nan nan nan nan nan
29 27 26 26 26 26 26 27 28 30 31 30 27 24 25 25 24 21 22 22 23 24 25 27 29 30 32 34 34 34 33 nan nan nan nan nan nan nan nan nan nan nan nan nan nan nan nan nan nan nan nan nan nan nan nan nan nan nan nan nan nan nan nan nan nan nan nan nan nan nan nan nan nan nan nan nan nan nan nan nan nan nan nan nan nan
28 28 29 28 28 29 28 29 31 31 31 28 25 23 25 24 23 23 23 23 23 25 26 27 29 31 32 33 33 34 34 33 33 nan nan nan nan nan nan nan nan nan nan nan nan nan nan nan nan nan nan nan nan nan nan nan nan nan nan nan nan nan nan nan nan nan nan nan nan nan nan nan nan nan nan nan nan nan nan nan nan nan nan nan nan
27 28 29 29 28 28 29 31 33 32 30 29 26 23 24 24 24 24 24 24 24 24 26 29 31 31 30 31 nan nan nan nan nan nan nan nan nan nan nan nan nan nan nan nan nan nan nan nan nan nan nan nan nan nan nan 8 nan nan nan nan nan nan nan nan nan nan nan nan nan nan nan nan nan nan nan nan nan nan nan nan nan nan nan nan nan
28 25 26 28 28 28 31 33 34 31 29 29 27 24 23 23 25 25 25 25 26 26 29 31 32 32 32 32 33 32 nan 29 nan nan nan nan nan nan nan nan nan nan nan nan nan nan nan nan nan nan nan nan nan nan nan nan nan nan nan nan nan nan nan 11 nan nan nan nan nan nan nan nan nan nan nan nan nan nan nan nan nan nan nan nan nan
28 28 29 29 28 29 31 32 32 32 31 29 27 25 24 24 25 25 23 25 26 29 30 30 31 31 31 31 32 31 30 nan nan nan nan nan nan nan nan nan nan nan nan nan nan nan nan nan nan nan nan nan nan nan nan nan nan nan nan nan nan nan nan nan nan nan nan nan nan nan nan nan nan nan nan nan nan nan nan nan nan nan nan nan nan
31 28 28 28 29 31 32 32 32 31 31 31 31 31 34 34 29 27 26 25 28 31 28 28 32 33 30 27 29 33 34 nan nan nan nan nan nan nan nan nan nan nan nan nan nan nan nan nan nan nan nan nan nan nan nan nan nan nan nan nan nan nan nan nan nan nan nan nan nan nan nan nan nan nan nan nan nan nan nan nan nan nan nan nan nan
33 32 29 28 30 32 32 32 32 33 33 32 31 32 33 35 37 36 31 29 32 34 34 36 38 36 29 26 23 29 nan nan nan nan nan nan nan nan nan nan nan nan nan nan nan nan nan nan nan nan nan nan nan nan nan nan nan nan nan nan nan nan nan nan nan nan nan nan nan nan nan nan nan nan nan nan nan nan nan nan nan nan nan nan nan
22 29 32 32 30 32 32 31 33 35 34 33 32 32 30 29 29 33 34 32 30 34 36 37 39 36 29 28 28 28 nan nan nan nan nan nan nan nan nan nan nan nan nan nan nan nan nan nan nan nan nan nan nan nan nan nan nan nan nan nan nan nan nan nan nan nan nan nan nan nan nan nan nan nan nan nan nan nan nan nan nan nan nan nan nan
14 19 29 33 31 29 30 30 30 31 31 31 31 26 25 27 28 30 31 33 34 35 34 35 36 32 31 31 32 33 nan nan nan nan nan nan nan nan nan nan nan nan nan nan nan nan nan nan nan nan nan nan nan nan nan nan nan nan nan nan nan nan nan nan nan nan nan nan nan nan nan nan nan nan nan nan nan nan nan nan nan nan nan nan nan
14 17 20 20 18 15 17 21 24 23 25 25 25 24 25 26 29 31 32 30 31 34 35 31 28 27 30 31 32 nan nan nan nan nan nan nan nan nan nan nan nan nan nan nan nan nan nan nan nan nan nan nan nan nan nan nan nan nan nan nan nan nan nan nan nan nan nan nan nan nan nan nan nan nan nan nan nan nan nan nan nan nan nan nan nan
17 18 22 21 18 17 15 14 15 17 19 21 22 23 23 25 27 28 28 28 29 29 27 26 27 25 25 27 30 nan nan nan nan nan nan nan nan nan nan nan nan nan nan nan nan nan nan nan nan nan nan nan nan nan nan nan nan nan nan nan nan nan nan nan nan nan nan nan nan nan nan nan nan nan nan nan nan nan nan nan nan nan nan nan nan
19 20 19 19 18 17 17 16 16 17 18 19 20 21 22 23 24 24 24 24 26 27 26 25 25 26 26 nan nan nan nan nan nan nan nan nan nan nan nan nan nan nan nan nan nan nan nan nan nan nan nan nan nan nan nan nan nan nan nan nan nan nan nan nan nan nan nan nan nan nan nan nan nan nan nan nan nan nan nan nan nan nan nan nan nan
24 23 22 21 20 20 19 19 18 19 20 21 22 22 22 21 22 22 22 23 24 24 26 27 27 26 28 nan nan nan nan nan nan nan nan nan nan nan nan nan nan nan nan nan nan nan nan nan nan nan nan nan nan nan nan nan nan nan nan nan nan nan nan nan nan nan nan nan nan nan nan nan nan nan nan nan nan nan nan nan nan nan nan nan nan
27 26 25 24 24 24 23 22 22 23 22 22 22 22 22 21 20 21 22 22 22 24 26 25 24 24 26 nan nan nan nan nan nan nan nan nan nan nan nan nan nan nan nan nan nan nan nan nan nan nan nan nan nan nan nan nan nan nan nan nan nan nan nan nan nan nan nan nan nan nan nan nan nan nan nan nan nan nan nan nan nan nan nan nan nan
28 29 31 30 28 27 26 26 25 24 23 23 23 23 22 22 21 21 21 22 23 23 24 23 22 23 nan nan nan nan nan nan nan nan nan nan nan nan nan nan nan nan nan nan nan nan nan nan nan nan nan nan nan nan nan nan nan nan nan nan nan nan nan nan nan nan nan nan nan nan nan nan nan nan nan nan nan nan nan nan nan nan nan nan nan
32 32 32 34 32 31 29 28 28 27 25 25 23 23 23 22 22 22 22 22 21 21 22 23 22 nan nan nan nan nan nan nan nan nan nan nan nan nan nan nan nan nan nan nan nan nan nan nan nan nan nan nan nan nan nan nan nan nan nan nan nan nan nan nan nan nan nan nan nan nan nan nan nan nan nan nan nan nan nan nan nan nan nan nan nan
33 34 34 34 34 34 32 30 28 27 26 24 24 24 23 23 23 23 22 22 22 22 22 22 nan nan nan nan nan nan nan nan nan nan nan nan nan nan nan nan nan nan nan nan nan nan nan nan nan nan nan nan nan nan nan nan nan nan nan nan nan nan nan nan nan nan nan nan nan nan nan nan nan nan nan nan nan nan nan nan nan nan nan nan nan
35 36 35 35 36 35 33 30 28 27 26 25 24 23 23 23 23 23 23 23 23 22 22 22 nan nan nan nan nan nan nan nan nan nan nan nan nan nan nan nan nan nan nan nan nan nan nan nan nan nan nan nan nan nan nan nan nan nan nan nan nan nan nan nan nan nan nan nan nan nan nan nan nan nan nan nan nan nan nan nan nan nan nan nan nan
36 36 36 37 36 35 33 31 29 27 25 24 23 22 23 23 23 24 24 23 23 23 23 22 nan nan nan nan nan nan nan nan nan nan nan nan nan nan nan nan nan nan nan nan nan nan nan nan nan nan nan nan nan nan nan nan nan nan nan nan nan nan nan nan nan nan nan nan nan nan nan nan nan nan nan nan nan nan nan nan nan nan nan nan nan
34 35 35 35 35 35 34 33 30 27 26 24 23 22 22 22 23 24 24 23 23 23 22 21 nan nan nan nan nan nan nan nan nan nan nan nan nan nan nan nan nan nan nan nan nan nan nan nan nan nan nan nan nan nan nan nan nan nan nan nan nan nan nan nan nan nan nan nan nan nan nan nan nan nan nan nan nan nan nan nan nan nan nan nan nan
33 33 34 34 35 35 34 33 30 27 25 23 23 23 23 23 23 23 24 23 23 23 nan nan nan nan nan nan nan nan nan nan nan nan nan nan nan nan nan nan nan nan nan nan nan nan nan nan nan nan nan nan nan nan nan nan nan nan nan nan nan nan nan nan nan nan nan nan nan nan nan nan nan nan nan nan nan nan nan nan nan nan nan nan nan
34 33 33 33 33 33 32 30 28 25 23 22 23 22 23 23 23 24 23 23 23 23 nan nan nan nan nan nan nan nan nan nan nan nan nan nan nan nan nan nan nan nan nan nan nan nan nan nan nan nan nan nan nan nan nan nan nan nan nan nan nan nan nan nan nan nan nan nan nan nan nan nan nan nan nan nan nan nan nan nan nan nan nan nan nan
34 33 31 30 29 29 27 26 25 23 22 22 22 22 23 24 24 24 24 24 24 23 nan nan nan nan nan nan nan nan nan nan nan nan nan nan nan nan nan nan nan nan nan nan nan nan nan nan nan nan nan nan nan nan nan nan nan nan nan nan nan nan nan nan nan nan nan nan nan nan nan nan nan nan nan nan nan nan nan nan nan nan nan nan nan
33 32 30 27 26 25 24 23 22 22 22 21 21 22 23 24 24 24 24 24 23 23 nan nan nan nan nan nan nan nan nan nan nan nan nan nan nan nan nan nan nan nan nan nan nan nan nan nan nan nan nan nan nan nan nan nan nan nan nan nan nan nan nan nan nan nan nan nan nan nan nan nan nan nan nan nan nan nan nan nan nan nan nan nan nan
35 33 30 27 24 22 22 22 21 21 21 22 22 22 23 24 24 24 24 24 nan nan nan nan nan nan nan nan nan nan nan nan nan nan nan nan nan nan nan nan nan nan nan nan nan nan nan nan nan nan nan nan nan nan nan nan nan nan nan nan nan nan nan nan nan nan nan nan nan nan nan nan nan nan nan nan nan nan nan nan nan nan nan nan nan
36 36 33 28 24 21 21 21 21 21 21 22 22 22 24 25 25 24 24 23 nan nan nan nan nan nan nan nan nan nan nan nan nan nan nan nan nan nan nan nan nan nan nan nan nan nan nan nan nan nan nan nan nan nan nan nan nan nan nan nan nan nan nan nan nan nan nan nan nan nan nan nan nan nan nan nan nan nan nan nan nan nan nan nan nan
35 36 36 31 26 22 21 21 21 20 21 21 22 23 24 25 24 25 24 23 nan nan nan nan nan nan nan nan nan nan nan nan nan nan nan nan nan nan nan nan nan nan nan nan nan nan nan nan nan nan nan nan nan nan nan nan nan nan nan nan nan nan nan nan nan nan nan nan nan nan nan nan nan nan nan nan nan nan nan nan nan nan nan nan nan
Wind_Direction
189 189 191 185 189 187 194 197 181 176 167 158 157 149 143 172 203 217 214 218 242 261 279 294 305 310 314 318 318 319 314 317 324 327 nan nan nan nan nan nan nan nan nan nan nan nan nan nan nan nan nan nan nan nan nan nan nan nan nan nan nan nan nan nan nan nan nan nan 4 3 356 331 288 255 245 239 236 239 243 248 251 255 254 250 251
189 191 193 188 188 188 191 204 195 196 180 162 164 145 173 199 221 222 236 235 252 274 283 291 298 303 307 308 309 308 313 320 326 327 nan nan nan nan nan nan nan nan nan nan nan nan nan nan nan nan nan nan nan nan nan nan nan nan nan nan nan nan nan nan nan nan nan nan nan 10 2 344 315 267 261 245 240 243 247 249 250 251 252 253 253
191 193 194 193 189 188 195 200 202 205 197 178 151 175 213 233 228 231 235 246 247 265 279 287 294 298 299 304 307 311 317 322 326 327 nan nan nan nan nan nan nan nan nan nan nan nan nan nan nan nan nan nan nan nan nan nan nan nan nan nan nan nan nan nan nan nan nan nan nan 17 14 11 341 333 262 250 248 249 251 247 250 250 251 254 257
197 195 195 194 192 191 192 194 198 208 206 191 168 205 232 240 237 242 242 243 255 257 273 288 293 294 299 303 306 313 318 322 325 328 nan nan nan nan nan nan nan nan nan nan nan nan nan nan nan nan nan nan nan nan nan nan nan nan nan nan nan nan 4 3 nan 5 nan nan 9 15 29 22 21 18 354 260 248 252 258 259 252 252 257 262 264
199 197 198 195 195 196 192 193 197 201 201 205 210 224 238 246 245 255 257 255 258 270 275 281 287 295 300 306 309 313 319 322 325 326 nan nan nan nan nan nan nan nan nan nan nan nan nan nan nan nan nan nan nan nan nan nan nan nan nan nan nan nan nan nan nan 2 nan nan 11 15 26 28 34 29 355 292 263 258 257 260 263 263 262 264 268
199 201 200 198 199 203 201 200 195 195 211 223 227 230 241 250 254 252 263 266 264 269 276 278 289 293 299 304 308 313 nan 321 323 326 nan nan nan nan nan nan nan nan nan nan nan nan nan nan nan nan nan nan nan nan nan nan nan nan nan nan nan nan nan 2 nan nan nan 4 6 12 18 30 44 38 45 11 310 282 271 266 265 264 264 262 260
202 201 200 203 210 208 209 206 206 208 214 224 225 228 236 243 252 259 260 266 268 269 272 279 284 292 296 300 304 310 nan 317 319 320 nan nan nan nan nan nan nan nan nan nan nan nan nan nan nan nan nan nan nan nan nan nan nan nan nan nan nan nan nan nan nan nan nan nan 10 9 21 30 30 41 60 39 354 330 307 287 268 262 260 262 263
206 202 200 207 214 217 213 211 218 223 219 222 229 232 234 237 244 251 258 262 265 271 276 280 283 288 294 296 300 nan nan 310 312 314 nan nan nan nan nan nan nan nan nan nan nan nan nan nan nan nan nan nan nan nan nan nan nan nan nan nan nan nan nan nan nan nan nan nan 12 19 24 26 35 40 48 43 11 337 335 310 289 274 261 249 244
208 204 204 213 219 221 220 219 224 229 230 228 231 234 235 238 243 249 256 262 265 270 273 278 nan 286 289 293 296 nan 304 308 312 314 nan nan nan nan nan nan nan nan nan nan nan nan nan nan nan nan nan 339 338 347 346 353 nan nan nan nan nan nan nan nan nan nan nan nan nan 27 21 13 29 44 50 50 1 344 7 331 287 274 272 nan nan
211 207 206 215 226 229 227 227 231 233 233 232 232 234 237 242 247 252 258 264 268 271 273 275 281 289 292 293 296 nan 302 307 308 307 312 nan nan nan nan nan nan nan nan nan nan nan nan nan nan nan nan nan 338 344 344 343 351 1 nan nan nan nan nan nan nan nan nan 19 nan 36 32 32 46 57 55 66 54 44 16 327 302 305 nan nan nan
212 211 211 214 229 234 230 231 235 237 235 232 231 236 239 243 248 253 260 266 272 273 276 nan 283 288 292 295 298 300 304 307 303 307 nan 316 nan nan nan nan nan nan nan nan nan nan nan nan nan nan nan nan nan 346 350 344 346 344 345 351 0 nan nan nan nan nan nan nan 29 32 37 43 51 56 56 58 49 43 55 68 34 23 nan nan nan
216 214 216 218 227 238 233 232 238 239 239 238 237 236 240 246 252 256 263 269 270 273 277 nan 287 290 292 295 299 303 nan 305 306 310 312 nan nan nan nan nan nan nan nan nan nan nan nan nan nan nan nan nan nan nan nan 6 343 344 346 351 354 356 nan nan nan nan nan nan 23 30 37 41 46 46 56 57 54 25 54 52 51 nan nan nan nan
221 221 222 224 229 237 239 238 239 242 243 243 240 242 247 251 256 261 267 268 270 276 nan nan 289 292 296 299 301 nan nan 309 311 312 313 nan nan nan nan nan nan nan nan nan nan nan nan nan nan nan nan nan nan nan nan nan 357 344 345 354 357 357 7 0 nan nan nan nan nan 28 37 44 44 48 58 63 59 10 22 14 48 nan nan nan 43
224 225 226 227 230 236 241 243 244 246 246 245 245 247 252 258 258 257 262 265 272 276 nan 285 290 294 298 300 301 304 308 309 311 313 314 nan nan nan nan nan nan nan nan nan nan nan nan nan nan nan nan nan nan nan nan nan nan nan nan nan nan nan nan 8 3 nan nan nan nan nan 45 42 45 50 58 60 51 29 20 26 39 34 41 46 58
225 227 230 230 231 234 239 243 246 247 249 249 247 249 253 255 258 259 263 270 277 nan nan 290 292 294 296 299 301 304 308 309 309 312 316 nan nan nan nan nan nan nan nan nan nan nan nan nan nan nan nan nan 346 nan nan nan nan nan nan nan nan nan nan nan nan nan nan nan nan nan 48 51 54 58 63 65 62 62 58 51 53 53 57 65 70
231 232 234 236 238 240 244 243 247 249 251 250 251 251 254 262 264 260 261 264 269 nan nan 287 293 295 298 301 302 305 307 307 309 314 318 321 nan nan nan nan nan nan nan nan nan nan nan nan nan nan nan nan nan nan nan nan nan nan nan nan nan nan nan 14 nan 19 nan nan nan nan 55 58 64 65 66 66 68 67 66 67 69 nan nan nan nan
230 233 234 237 241 244 248 250 250 253 255 256 255 255 259 260 261 262 268 273 279 nan 290 292 293 298 303 306 307 308 309 309 312 317 321 322 nan nan nan nan nan nan nan nan nan nan nan nan nan nan nan nan nan nan nan nan nan nan nan nan nan nan nan 14 17 nan nan nan nan nan 81 85 85 83 77 71 67 65 61 62 65 63 56 55 61
226 231 231 234 238 242 246 251 255 256 257 261 261 257 255 255 263 267 275 280 283 nan nan 291 295 302 308 310 310 309 310 311 313 318 323 323 nan nan nan nan nan nan nan nan nan nan nan nan nan nan nan nan nan nan nan nan nan nan nan nan nan nan nan nan nan nan nan nan nan nan 109 107 102 96 88 75 70 66 58 53 60 54 50 51 45
222 226 228 230 234 239 243 248 255 259 262 261 261 263 263 264 262 265 269 273 281 nan 289 292 297 302 306 307 311 308 310 nan nan nan nan nan nan nan nan nan nan nan nan nan nan nan nan nan nan nan nan nan nan nan nan nan nan nan nan nan nan nan nan nan nan nan nan nan nan nan nan 113 102 92 87 89 70 61 53 47 48 37 34 38 34
220 224 228 230 231 236 240 248 252 258 262 260 259 259 258 262 267 269 269 274 282 nan 290 294 299 302 304 304 nan nan nan nan nan nan nan nan nan nan nan nan nan nan nan nan nan nan nan nan nan nan nan nan nan nan nan nan nan nan nan nan nan nan nan nan nan nan nan nan nan nan nan 108 114 109 99 87 77 61 50 44 39 30 25 27 29
220 224 227 230 232 238 241 247 254 255 259 261 260 261 263 267 268 269 272 276 282 287 292 293 295 300 302 303 nan nan nan nan 313 nan 322 nan nan nan nan nan nan nan nan nan nan nan nan nan nan nan nan nan nan nan nan nan nan nan nan nan nan nan nan nan nan nan nan nan nan nan nan nan 137 133 128 104 74 57 39 32 27 23 15 11 10
222 226 229 230 231 236 242 244 249 252 254 259 264 267 265 267 269 271 274 282 289 290 290 291 294 298 301 303 305 nan nan nan nan nan 316 nan nan nan nan nan nan nan nan nan nan nan nan nan nan nan nan nan nan nan nan nan nan nan nan nan nan nan nan nan nan nan nan nan nan nan nan nan nan nan nan nan 56 29 15 11 10 7 8 9 5
226 229 231 231 233 236 240 250 253 252 258 263 267 270 270 271 272 277 284 287 289 289 289 292 295 298 302 306 nan nan 315 nan nan nan nan nan nan nan nan nan nan nan nan nan nan nan nan nan nan nan nan nan nan nan nan nan nan nan nan nan nan nan nan nan nan nan nan nan nan nan nan nan nan nan nan nan nan nan nan nan nan 354 353 356 358
227 232 234 236 237 239 243 249 252 254 260 263 267 272 273 272 275 280 284 286 286 288 290 294 297 302 307 309 309 311 310 nan nan nan nan nan nan nan nan nan nan nan nan nan nan nan nan nan nan nan nan nan nan nan nan nan nan nan nan nan nan nan nan nan nan nan nan nan nan nan nan nan nan nan nan nan nan nan nan nan nan nan nan nan nan
233 234 237 238 239 239 244 247 251 255 259 265 270 270 271 275 277 278 283 284 287 291 294 299 304 308 307 308 307 307 308 nan nan nan nan nan nan nan nan nan nan nan nan nan nan nan nan nan nan nan nan nan nan nan nan nan nan nan nan nan nan nan nan nan nan nan nan nan nan nan nan nan nan nan nan nan nan nan nan nan nan nan nan nan nan
239 237 233 235 238 241 247 248 249 254 259 261 267 268 272 275 277 279 282 284 288 294 298 302 301 297 300 302 304 305 307 306 307 nan nan nan nan nan nan nan nan nan nan nan nan nan nan nan nan nan nan nan nan nan nan nan nan nan nan nan nan nan nan nan nan nan nan nan nan nan nan nan nan nan nan nan nan nan nan nan nan nan nan nan nan
238 236 232 233 239 244 252 251 251 254 259 260 262 264 266 272 278 281 282 286 290 294 294 289 289 294 300 306 nan nan nan nan nan nan nan nan nan nan nan nan nan nan nan nan nan nan nan nan nan nan nan nan nan nan nan 325 nan nan nan nan nan nan nan nan nan nan nan nan nan nan nan nan nan nan nan nan nan nan nan nan nan nan nan nan nan
233 236 235 234 238 244 249 256 259 257 261 265 267 267 268 275 280 284 289 291 292 292 289 291 298 307 312 310 308 306 nan 312 nan nan nan nan nan nan nan nan nan nan nan nan nan nan nan nan nan nan nan nan nan nan nan nan nan nan nan nan nan nan nan 323 nan nan nan nan nan nan nan nan nan nan nan nan nan nan nan nan nan nan nan nan nan
227 232 233 231 234 240 247 254 256 259 261 262 261 262 272 274 274 274 280 287 290 293 294 297 301 295 295 303 307 308 307 nan nan nan nan nan nan nan nan nan nan nan nan nan nan nan nan nan nan nan nan nan nan nan nan nan nan nan nan nan nan nan nan nan nan nan nan nan nan nan nan nan nan nan nan nan nan nan nan nan nan nan nan nan nan
243 243 238 235 234 237 241 247 252 258 261 261 260 250 240 250 258 273 281 281 275 271 278 285 288 293 294 297 306 313 316 nan nan nan nan nan nan nan nan nan nan nan nan nan nan nan nan nan nan nan nan nan nan nan nan nan nan nan nan nan nan nan nan nan nan nan nan nan nan nan nan nan nan nan nan nan nan nan nan nan nan nan nan nan nan
248 248 247 242 240 238 241 245 250 252 253 257 258 260 259 249 244 245 253 269 273 279 282 283 284 283 292 299 296 288 nan nan nan nan nan nan nan nan nan nan nan nan nan nan nan nan nan nan nan nan nan nan nan nan nan nan nan nan nan nan nan nan nan nan nan nan nan nan nan nan nan nan nan nan nan nan nan nan nan nan nan nan nan nan nan
260 250 248 245 247 242 240 244 249 251 252 255 259 263 270 272 254 244 247 254 268 280 285 287 292 298 305 302 296 289 nan nan nan nan nan nan nan nan nan nan nan nan nan nan nan nan nan nan nan nan nan nan nan nan nan nan nan nan nan nan nan nan nan nan nan nan nan nan nan nan nan nan nan nan nan nan nan nan nan nan nan nan nan nan nan
300 261 245 239 229 225 228 235 245 254 260 261 264 275 276 269 269 264 254 257 264 270 277 285 293 300 302 304 305 301 nan nan nan nan nan nan nan nan nan nan nan nan nan nan nan nan nan nan nan nan nan nan nan nan nan nan nan nan nan nan nan nan nan nan nan nan nan nan nan nan nan nan nan nan nan nan nan nan nan nan nan nan nan nan nan
297 289 272 268 270 259 234 229 238 251 263 274 280 276 271 273 273 276 277 272 265 260 261 273 285 294 302 306 303 nan nan nan nan nan nan nan nan nan nan nan nan nan nan nan nan nan nan nan nan nan nan nan nan nan nan nan nan nan nan nan nan nan nan nan nan nan nan nan nan nan nan nan nan nan nan nan nan nan nan nan nan nan nan nan nan
270 283 290 293 290 291 290 273 259 260 270 277 276 275 274 272 275 280 283 282 281 284 286 277 275 284 293 297 297 nan nan nan nan nan nan nan nan nan nan nan nan nan nan nan nan nan nan nan nan nan nan nan nan nan nan nan nan nan nan nan nan nan nan nan nan nan nan nan nan nan nan nan nan nan nan nan nan nan nan nan nan nan nan nan nan
266 270 276 279 278 280 284 284 278 275 278 277 275 273 272 272 274 276 276 278 281 283 281 281 276 275 281 nan nan nan nan nan nan nan nan nan nan nan nan nan nan nan nan nan nan nan nan nan nan nan nan nan nan nan nan nan nan nan nan nan nan nan nan nan nan nan nan nan nan nan nan nan nan nan nan nan nan nan nan nan nan nan nan nan nan
262 262 264 266 269 270 271 271 273 274 272 275 274 272 272 272 273 274 276 278 280 280 282 277 272 272 277 nan nan nan nan nan nan nan nan nan nan nan nan nan nan nan nan nan nan nan nan nan nan nan nan nan nan nan nan nan nan nan nan nan nan nan nan nan nan nan nan nan nan nan nan nan nan nan nan nan nan nan nan nan nan nan nan nan nan
269 269 267 268 268 268 269 268 270 272 275 275 274 276 277 278 279 278 278 280 283 285 283 280 280 289 298 nan nan nan nan nan nan nan nan nan nan nan nan nan nan nan nan nan nan nan nan nan nan nan nan nan nan nan nan nan nan nan nan nan nan nan nan nan nan nan nan nan nan nan nan nan nan nan nan nan nan nan nan nan nan nan nan nan nan
262 274 280 282 278 277 275 274 275 277 276 276 279 281 283 282 279 277 279 280 282 284 288 291 293 295 nan nan nan nan nan nan nan nan nan nan nan nan nan nan nan nan nan nan nan nan nan nan nan nan nan nan nan nan nan nan nan nan nan nan nan nan nan nan nan nan nan nan nan nan nan nan nan nan nan nan nan nan nan nan nan nan nan nan nan
257 262 270 278 271 273 273 278 282 284 284 283 283 283 284 286 285 284 283 283 286 288 291 294 297 nan nan nan nan nan nan nan nan nan nan nan nan nan nan nan nan nan nan nan nan nan nan nan nan nan nan nan nan nan nan nan nan nan nan nan nan nan nan nan nan nan nan nan nan nan nan nan nan nan nan nan nan nan nan nan nan nan nan nan nan
252 258 264 270 271 271 272 275 278 280 280 283 285 287 288 287 285 283 283 284 283 286 289 293 nan nan nan nan nan nan nan nan nan nan nan nan nan nan nan nan nan nan nan nan nan nan nan nan nan nan nan nan nan nan nan nan nan nan nan nan nan nan nan nan nan nan nan nan nan nan nan nan nan nan nan nan nan nan nan nan nan nan nan nan nan
253 256 261 263 268 270 273 276 277 282 282 282 283 284 284 284 283 282 282 282 282 283 285 287 nan nan nan nan nan nan nan nan nan nan nan nan nan nan nan nan nan nan nan nan nan nan nan nan nan nan nan nan nan nan nan nan nan nan nan nan nan nan nan nan nan nan nan nan nan nan nan nan nan nan nan nan nan nan nan nan nan nan nan nan nan
256 257 260 262 267 269 272 275 277 277 277 277 279 281 282 283 282 280 279 280 280 280 283 285 nan nan nan nan nan nan nan nan nan nan nan nan nan nan nan nan nan nan nan nan nan nan nan nan nan nan nan nan nan nan nan nan nan nan nan nan nan nan nan nan nan nan nan nan nan nan nan nan nan nan nan nan nan nan nan nan nan nan nan nan nan
254 256 258 262 266 268 270 274 278 277 273 277 279 280 280 279 278 278 279 278 278 279 282 284 nan nan nan nan nan nan nan nan nan nan nan nan nan nan nan nan nan nan nan nan nan nan nan nan nan nan nan nan nan nan nan nan nan nan nan nan nan nan nan nan nan nan nan nan nan nan nan nan nan nan nan nan nan nan nan nan nan nan nan nan nan
252 255 258 260 263 267 271 275 277 275 274 274 274 275 276 277 278 278 277 277 278 279 nan nan nan nan nan nan nan nan nan nan nan nan nan nan nan nan nan nan nan nan nan nan nan nan nan nan nan nan nan nan nan nan nan nan nan nan nan nan nan nan nan nan nan nan nan nan nan nan nan nan nan nan nan nan nan nan nan nan nan nan nan nan nan
250 253 257 261 264 268 271 273 272 269 269 271 274 275 275 275 275 277 278 278 279 280 nan nan nan nan nan nan nan nan nan nan nan nan nan nan nan nan nan nan nan nan nan nan nan nan nan nan nan nan nan nan nan nan nan nan nan nan nan nan nan nan nan nan nan nan nan nan nan nan nan nan nan nan nan nan nan nan nan nan nan nan nan nan nan
250 250 253 256 261 265 267 269 268 265 265 269 272 274 274 275 275 276 277 279 279 280 nan nan nan nan nan nan nan nan nan nan nan nan nan nan nan nan nan nan nan nan nan nan nan nan nan nan nan nan nan nan nan nan nan nan nan nan nan nan nan nan nan nan nan nan nan nan nan nan nan nan nan nan nan nan nan nan nan nan nan nan nan nan nan
252 252 252 252 256 258 260 260 263 264 263 265 268 271 273 274 275 277 277 278 280 281 nan nan nan nan nan nan nan nan nan nan nan nan nan nan nan nan nan nan nan nan nan nan nan nan nan nan nan nan nan nan nan nan nan nan nan nan nan nan nan nan nan nan nan nan nan nan nan nan nan nan nan nan nan nan nan nan nan nan nan nan nan nan nan
257 256 255 253 252 255 256 257 257 259 261 263 266 270 271 273 275 276 277 278 nan nan nan nan nan nan nan nan nan nan nan nan nan nan nan nan nan nan nan nan nan nan nan nan nan nan nan nan nan nan nan nan nan nan nan nan nan nan nan nan nan nan nan nan nan nan nan nan nan nan nan nan nan nan nan nan nan nan nan nan nan nan nan nan nan
261 261 261 258 254 252 253 253 253 254 255 258 264 269 271 273 275 276 276 276 nan nan nan nan nan nan nan nan nan nan nan nan nan nan nan nan nan nan nan nan nan nan nan nan nan nan nan nan nan nan nan nan nan nan nan nan nan nan nan nan nan nan nan nan nan nan nan nan nan nan nan nan nan nan nan nan nan nan nan nan nan nan nan nan nan
261 261 262 262 258 253 252 253 253 252 252 253 257 263 268 271 273 274 275 276 nan nan nan nan nan nan nan nan nan nan nan nan nan nan nan nan nan nan nan nan nan nan nan nan nan nan nan nan nan nan nan nan nan nan nan nan nan nan nan nan nan nan nan nan nan nan nan nan nan nan nan nan nan nan nan nan nan nan nan nan nan nan nan nan nan